sat.trackr.live / text

‹ back to catalog

CHUANGXIN 20A (CX-20A)

NORAD 58425 · 2023-181A

PAYLOAD ACTIVE UNKNOWN

§ Identity

Operator
Country
PRC
Launch date
2023-11-23
Launch site
XICLF
Launch vehicle
Mass (kg)
RCS (m²)

External: N2YO · Heavens-Above · Gunter

§ Orbital elements

Epoch: 2026-05-25T04:32:43.933632Z

Period
107.34 min
Inclination
49.9600°
Eccentricity
0.0012878
Mean motion
13.41495320 rev/d
Perigee alt
1,094.1 km
Apogee alt
1,113.3 km
Semi-major
7,481.9 km
B*
8.2265e-5
RAAN
51.0517°
Arg perigee
197.6145°
Mean anomaly
162.4287°
Rev number
12,266

§ Raw data

CHUANGXIN 20A (CX-20A)1 58425U 23181A   26145.18939738 -.00000082  00000+0  82265-4 0  99922 58425  49.9600  51.0517 0012878 197.6145 162.4287 13.41495320122661

JSON: /api/v1/satellites/58425 · /tle

For live sub-satellite position, see the globe view (requires WebGL).

§ Visibility from observer

Set your observer location to see the next 7 days of passes ≥ 10°. The values pass through the URL so the page stays shareable.

No JS? Fill the form by hand. The geolocation button needs JavaScript.